Weather Roundup
Issued by NWS Chicago, IL

Home | Current Version | Previous Version | Text Only | Print | Product List | Glossary On
Versions: 1 2 3 4 5 6 7 8 9 10 11 12 13 14 15 16 17 18 19 20 21 22 23 24 25 26 27 28 29 30 31 32 33 34 35 36 37 38 39 40 41 42 43 44 45 46 47 48 49 50
000
NZUS59 KLOT 192308
HRRLOT

CHICAGO AREA WEATHER ROUNDUP
NATIONAL WEATHER SERVICE CHICAGO/ROMEOVILLE IL
500 PM CST FRI JAN 19 2018

NOTE: "FAIR" INDICATES FEW OR NO CLOUDS BELOW 12,000 FEET WITH NO
SIGNIFICANT WEATHER AND/OR OBSTRUCTIONS TO VISIBILITY.

* THESE STATIONS ARE NOT UNDER NWS QUALITY CONTROL. THEY ALSO MAY NOT
  REPORT WEATHER SUCH AS PRECIPITATION OR FOG.

ILZ005-006-012>014-019>023-200000-
NORTHEAST ILLINOIS

CITY           SKY/WX    TMP DP  RH WIND       PRES   REMARKS
OHARE          MOCLDY    38  27  64 S17G24    29.74F
MIDWAY         MOCLDY    37  29  72 SW16G23   29.76F
AURORA           N/A     38  28  67 S14       29.76F
LANSING*         N/A     34  30  85 S15G21    29.81F WCI  24
JOLIET*          N/A     39  31  71 S12G18    29.79F
WAUKEGAN         N/A     38  27  64 SW21G29   29.68F
DUPAGE AIRPORT   N/A     35  29  78 S15       29.74F WCI  25
WHEELING         N/A     39  27  62 S15       29.74F
KANKAKEE*        N/A    N/A N/A N/A SW14G21   29.84F
MORRIS*          N/A     37  30  76 S13       29.78F
LEWIS AIRPORT*   N/A     37  30  76 S15       29.78F
NORTHERLY ISL    N/A     37  26  65 S12         N/A
$$

WIZ051-052-058>065-066-070>072-200000-
SOUTHEAST WISCONSIN

CITY           SKY/WX    TMP DP  RH WIND       PRES   REMARKS
MILWAUKEE      CLOUDY    39  27  62 SW21G31   29.64F
KENOSHA*         N/A     39  25  57 SW16G28   29.67F
RACINE*          N/A     39  25  57 SW13      29.67F
BURLINGTON       N/A     35  27  72 S18G26    29.67S WCI  25
WAUKESHA       CLEAR     36  25  64 SW14G21   29.64F
WEST BEND        N/A     36  27  69 SW16      29.58F
$$

INZ001>003-010>013-019-020-200000-
NORTHWEST INDIANA

CITY           SKY/WX    TMP DP  RH WIND       PRES   REMARKS
GARY*          MOCLDY    37  27  65 S17       29.81F
MICHIGAN CITY* NOT AVBL
RENSSELAER*    NOT AVBL
VALPARAISO       N/A     34  25  69 S14G22    29.83S WCI  25
$$

LMZ740>746-200000-
SOUTHERN LAKE MICHIGAN

STATION/POSITION TIME  SKY/WX   TEMP WIND        PRES    VSBY
                                AIR  DIR/SP/G
                 (UTC)          (F)  (DEG/KT/KT) (MB)    (MI)
HARRISON CRIB    2240            38  200/ 27/ 30   N/A
BURNHAM HARBOR   2300            37  200/ 15/ 19   N/A
CALUMET HARBOR   2248                            1007.5F
BURNS HARBOR     2240            35  190/ 17/ 24 1009.5F
MICHIGAN CITY    2240            35  180/ 16/ 19   N/A
$$

ABBREVIATIONS USED IN REMARKS
   TC - TEMPERATURE IN CELSIUS
  WCI - WIND CHILL INDEX
   HX - HEAT INDEX
  VSB - VISIBILITY
$$



USA.gov is the U.S. government's official web portal to all federal, state and local government web resources and services.